This demonstration page uses our WeatherBlox Daily Observations layout. Learn more.

Left ArrowRight Arrow

Hourly Observations for June 1, 2020

Temp ( °F °C ) Dew Point ( °F °C ) Humidity (%) Winds ( mph kmh ) Pressure ( in mb ) Visibility ( mi km ) Precip ( " mm )
12:53 am 00:53 Clear 74 23.3 57 13.9 56 56 SSE 14 22 29.97 1015 10 16 0.00 0.00
1:53 am 01:53 Clear 72 22.2 57 13.9 59 59 SE 7 11 30.00 1016 10 16 0.00 0.00
2:53 am 02:53 Clear 71 21.7 58 14.4 63 63 SSE 10 17 30.00 1016 10 16 0.00 0.00
3:53 am 03:53 Clear 69 20.6 61 16.1 76 76 ESE 7 11 30.00 1016 10 16 0.00 0.00
4:53 am 04:53 Clear 68 20 60 15.6 76 76 E 7 11 29.98 1015 10 16 0.00 0.00
5:53 am 05:53 Clear 67 19.4 60 15.6 79 79 ESE 8 13 29.99 1016 10 16 0.00 0.00
6:53 am 06:53 Sunny 66 18.9 60 15.6 81 81 E 5 7 30.01 1016 10 16 0.00 0.00
7:53 am 07:53 Sunny 67 19.4 61 16.1 81 81 E 7 11 30.02 1017 10 16 0.00 0.00
8:53 am 08:53 Sunny 70 21.1 61 16.1 73 73 ESE 13 20 30.04 1017 10 16 0.00 0.00
9:53 am 09:53 Partly Cloudy 71 21.7 61 16.1 71 71 SE 15 24 30.05 1018 10 16 0.00 0.00
10:41 am 10:41 Mostly Cloudy 74 23.3 61 16.1 64 64 SSE 14 22 30.04 1017 10 16 0.00 0.00
10:53 am 10:53 Partly Cloudy 74 23.3 60 15.6 62 62 SE 13 20 30.05 1018 10 16 0.00 0.00
11:53 am 11:53 Mostly Sunny 77 25 60 15.6 56 56 SE 12 19 30.04 1017 10 16 0.00 0.00
12:53 pm 12:53 Mostly Cloudy 80 26.7 59 15 49 49 ESE 13 20 30.01 1016 10 16 0.00 0.00
1:53 pm 13:53 Partly Cloudy 82 27.8 57 13.9 42 42 ESE 7 11 29.98 1015 10 16 0.00 0.00
2:53 pm 14:53 Mostly Sunny 86 30 56 13.3 36 36 SE 13 20 29.94 1014 10 16 0.00 0.00
3:53 pm 15:53 Sunny 87 30.6 54 12.2 32 32 E 14 22 29.92 1013 10 16 0.00 0.00
4:53 pm 16:53 Mostly Cloudy 88 31.1 55 12.8 33 33 ESE 15 24 29.89 1012 10 16 0.00 0.00
5:53 pm 17:53 Partly Cloudy 87 30.6 54 12.2 32 32 SE 10 17 29.88 1012 10 16 0.00 0.00
6:53 pm 18:53 Mostly Cloudy 83 28.3 58 14.4 43 43 ESE 22 35 29.88 1012 10 16 0.00 0.00
7:53 pm 19:53 Sunny 82 27.8 58 14.4 44 44 ESE 15 24 29.88 1012 10 16 0.00 0.00
8:53 pm 20:53 Sunny 78 25.6 58 14.4 50 50 SE 16 26 29.90 1013 10 16 0.00 0.00
9:53 pm 21:53 Clear 75 23.9 58 14.4 55 55 ESE 16 26 29.92 1013 10 16 0.00 0.00
10:53 pm 22:53 Clear 73 22.8 58 14.4 59 59 ESE 14 22 29.94 1014 10 16 0.00 0.00
11:53 pm 23:53 Clear 72 22.2 60 15.6 66 66 ESE 14 22 29.96 1014 10 16 0.00 0.00

Powered by AerisWeather